, LA

(GMT )
Atlantis

Weather History for KATP - March, 2014

Change the Weather History Date:

Thursday, March 20, 2014

  Actual Average Record
Temperature  
Mean Temperature 68 °F -  
Max Temperature 71 °F - - ()
Min Temperature 66 °F - - ()
Cooling Degree Days 4    
Growing Degree Days 18 (Base 50)    
Moisture  
Dew Point 57 °F    
Average Humidity 68    
Maximum Humidity 78    
Minimum Humidity 60    
Precipitation  
Precipitation 0.00 in - - ()
Sea Level Pressure  
Sea Level Pressure 30.17 in    
Wind  
Wind Speed 8 mph (NNE)    
Max Wind Speed 15 mph    
Max Gust Speed -    
Visibility 10 miles    
Events      
T = Trace of Precipitation, MM = Missing Value Source: NWS Daily Summary

Daily Weather History Graph

Daily Weather History Graph

Search for Another Location

Airport or City:

Trip Planner

Search our weather history database for the weather conditions in past years. The results will help you decide how hot, cold, wet, or windy it might be!

Date:

Astronomy

Mar. 20, 2014 Rise Set
Actual Time 7:04 AM CDT 7:11 PM CDT
Civil Twilight 6:40 AM CDT 7:34 PM CDT
Nautical Twilight 6:13 AM CDT 8:01 PM CDT
Astronomical Twilight 5:46 AM CDT 8:29 PM CDT
Moon 11:08 PM CDT (3/20) 9:31 AM CDT (3/20)
Length of Visible Light 12h 53m
Length of Day
12h 07m
Waning Gibbous, 84% of the Moon is Illuminated
Mar 20
Waning Gibbous
Mar 23
Last Quarter
Mar 30
New
Apr 7
First Quarter
Apr 15
Full

Hourly Weather History & Observations

Time (CDT) Temp. Dew Point Humidity Pressure Visibility Wind Dir Wind Speed Gust Speed Precip Events Conditions
12:15 AM 66.2 °F 55.4 °F 68% 30.17 in 10.0 mi NE 8.1 mph - N/A   Clear
12:35 AM 66.2 °F 55.4 °F 68% 30.17 in 10.0 mi East 9.2 mph - N/A   Clear
12:55 AM 66.2 °F 55.4 °F 68% 30.17 in 10.0 mi ENE 8.1 mph - N/A   Clear
1:15 AM 66.2 °F 55.4 °F 68% 30.16 in 10.0 mi East 6.9 mph - N/A   Clear
1:35 AM 66.2 °F 55.4 °F 68% 30.15 in 10.0 mi East 8.1 mph - N/A   Clear
1:55 AM 66.2 °F 55.4 °F 68% 30.15 in 10.0 mi East 8.1 mph - N/A   Clear
2:15 AM 66.2 °F 55.4 °F 68% 30.15 in 10.0 mi ENE 5.8 mph - N/A   Clear
2:35 AM 66.2 °F 55.4 °F 68% 30.14 in 10.0 mi NE 5.8 mph - N/A   Clear
2:55 AM 66.2 °F 55.4 °F 68% 30.14 in 10.0 mi NNE 4.6 mph - N/A   Clear
3:15 AM 66.2 °F 55.4 °F 68% 30.14 in 10.0 mi NNE 4.6 mph - N/A   Clear
3:35 AM 66.2 °F 55.4 °F 68% 30.14 in 10.0 mi NNE 6.9 mph - N/A   Clear
3:55 AM 66.2 °F 55.4 °F 68% 30.14 in 10.0 mi North 6.9 mph - N/A   Clear
4:15 AM 66.2 °F 55.4 °F 68% 30.14 in 10.0 mi North 6.9 mph - N/A   Clear
4:35 AM 66.2 °F 55.4 °F 68% 30.13 in 10.0 mi North 8.1 mph - N/A   Clear
4:55 AM 66.2 °F 55.4 °F 68% 30.13 in 10.0 mi NNE 6.9 mph - N/A   Clear
5:15 AM 66.2 °F 55.4 °F 68% 30.14 in 10.0 mi NNE 5.8 mph - N/A   Clear
5:35 AM 66.2 °F 55.4 °F 68% 30.14 in 10.0 mi North 8.1 mph - N/A   Clear
5:55 AM 66.2 °F 55.4 °F 68% 30.15 in 5.0 mi North 9.2 mph - N/A   Haze
6:15 AM 66.2 °F 57.2 °F 73% 30.16 in 10.0 mi NNE 8.1 mph - N/A   Scattered Clouds
6:35 AM 66.2 °F 55.4 °F 68% 30.16 in 10.0 mi North 6.9 mph - N/A   Partly Cloudy
6:55 AM 66.2 °F 55.4 °F 68% 30.18 in 10.0 mi NNW 6.9 mph - N/A   Clear
7:15 AM 66.2 °F 55.4 °F 68% 30.18 in 10.0 mi NNW 8.1 mph - N/A   Clear
7:35 AM 68.0 °F 55.4 °F 64% 30.19 in 9.0 mi NNW 9.2 mph - N/A   Clear
7:55 AM 66.2 °F 55.4 °F 68% 30.19 in 10.0 mi NNW 9.2 mph - N/A   Clear
8:15 AM 68.0 °F 55.4 °F 64% 30.19 in 10.0 mi North 10.4 mph - N/A   Clear
8:35 AM 68.0 °F 55.4 °F 64% 30.19 in 10.0 mi NNE 9.2 mph - N/A   Clear
8:55 AM 68.0 °F 55.4 °F 64% 30.20 in 10.0 mi North 10.4 mph - N/A   Clear
9:15 AM 68.0 °F 55.4 °F 64% 30.20 in 10.0 mi North 10.4 mph - N/A   Clear
9:35 AM 68.0 °F 55.4 °F 64% 30.21 in 10.0 mi NNW 12.7 mph - N/A   Clear
9:55 AM 68.0 °F 55.4 °F 64% 30.21 in 10.0 mi NNW 11.5 mph - N/A   Clear
10:15 AM 69.8 °F 55.4 °F 60% 30.22 in 10.0 mi NNW 11.5 mph - N/A   Clear
10:35 AM 69.8 °F 55.4 °F 60% 30.23 in 10.0 mi North 10.4 mph - N/A   Clear
10:55 AM 71.6 °F 59.0 °F 64% 30.23 in 10.0 mi NNW 13.8 mph - N/A   Scattered Clouds
11:15 AM 69.8 °F 59.0 °F 68% 30.23 in 10.0 mi NNW 15.0 mph - N/A   Mostly Cloudy
11:35 AM 69.8 °F 59.0 °F 68% 30.23 in 10.0 mi NNW 13.8 mph - N/A   Partly Cloudy
11:55 AM 69.8 °F 57.2 °F 64% 30.23 in 10.0 mi NNW 13.8 mph - N/A   Clear
12:15 PM 69.8 °F 57.2 °F 64% 30.22 in 10.0 mi NNW 12.7 mph - N/A   Partly Cloudy
12:35 PM 69.8 °F 57.2 °F 64% 30.21 in 10.0 mi North 11.5 mph - N/A   Partly Cloudy
12:55 PM 68.0 °F 55.4 °F 64% 30.20 in 10.0 mi North 11.5 mph - N/A   Partly Cloudy
1:15 PM 68.0 °F 55.4 °F 64% 30.20 in 10.0 mi North 10.4 mph - N/A   Clear
1:35 PM 68.0 °F 55.4 °F 64% 30.18 in 10.0 mi North 10.4 mph - N/A   Clear
1:55 PM 68.0 °F 55.4 °F 64% 30.18 in 10.0 mi NNE 10.4 mph - N/A   Partly Cloudy
2:15 PM 68.0 °F 55.4 °F 64% 30.18 in 10.0 mi North 11.5 mph - N/A   Clear
2:35 PM 68.0 °F 55.4 °F 64% 30.16 in 10.0 mi NE 11.5 mph - N/A   Clear
2:55 PM 68.0 °F 55.4 °F 64% 30.15 in 10.0 mi NE 9.2 mph - N/A   Partly Cloudy
3:15 PM 69.8 °F 55.4 °F 60% 30.16 in 10.0 mi NE 9.2 mph - N/A   Clear
3:35 PM 69.8 °F 55.4 °F 60% 30.15 in 10.0 mi NE 8.1 mph - N/A   Clear
3:55 PM 68.0 °F 57.2 °F 68% 30.15 in 10.0 mi NNE 9.2 mph - N/A   Clear
4:15 PM 68.0 °F 57.2 °F 68% 30.15 in 10.0 mi ENE 9.2 mph - N/A   Clear
4:35 PM 68.0 °F 57.2 °F 68% 30.14 in 10.0 mi ENE 9.2 mph - N/A   Clear
4:55 PM 68.0 °F 57.2 °F 68% 30.14 in 10.0 mi East 8.1 mph - N/A   Clear
5:15 PM 68.0 °F 57.2 °F 68% 30.13 in 10.0 mi East 5.8 mph - N/A   Clear
5:35 PM 68.0 °F 57.2 °F 68% 30.13 in 10.0 mi East 6.9 mph - N/A   Clear
5:55 PM 68.0 °F 57.2 °F 68% 30.14 in 10.0 mi ENE 6.9 mph - N/A   Clear
6:15 PM 68.0 °F 57.2 °F 68% 30.15 in 10.0 mi ENE 5.8 mph - N/A   Clear
6:35 PM 68.0 °F 57.2 °F 68% 30.15 in 10.0 mi ENE 6.9 mph - N/A   Clear
6:55 PM 68.0 °F 57.2 °F 68% 30.15 in 10.0 mi ENE 6.9 mph - N/A   Clear
7:15 PM 68.0 °F 59.0 °F 73% 30.15 in 10.0 mi NE 5.8 mph - N/A   Clear
7:35 PM 68.0 °F 59.0 °F 73% 30.15 in - ENE 5.8 mph - N/A   Partly Cloudy
7:55 PM 68.0 °F 59.0 °F 73% 30.15 in 10.0 mi East 4.6 mph - N/A   Clear
8:15 PM 68.0 °F 59.0 °F 73% 30.15 in 10.0 mi ENE 4.6 mph - N/A   Clear
8:35 PM 68.0 °F 59.0 °F 73% 30.16 in 10.0 mi NE 4.6 mph - N/A   Clear
8:55 PM 68.0 °F 59.0 °F 73% 30.16 in 10.0 mi NE 5.8 mph - N/A   Scattered Clouds
9:15 PM 68.0 °F 59.0 °F 73% 30.17 in 10.0 mi ENE 4.6 mph - N/A   Partly Cloudy
9:35 PM 68.0 °F 59.0 °F 73% 30.18 in 10.0 mi NNE 4.6 mph - N/A   Partly Cloudy
9:55 PM 68.0 °F 59.0 °F 73% 30.18 in 10.0 mi ENE 4.6 mph - N/A   Scattered Clouds
10:15 PM 68.0 °F 59.0 °F 73% 30.18 in 10.0 mi NE 4.6 mph - N/A   Scattered Clouds
10:35 PM 68.0 °F 60.8 °F 78% 30.18 in 10.0 mi ENE 4.6 mph - N/A   Scattered Clouds
10:55 PM 68.0 °F 60.8 °F 78% 30.18 in 10.0 mi ENE 5.8 mph - N/A   Clear
11:15 PM 68.0 °F 60.8 °F 78% 30.18 in 9.0 mi ENE 5.8 mph - N/A   Partly Cloudy
11:35 PM 68.0 °F 60.8 °F 78% 30.17 in 10.0 mi ENE 4.6 mph - N/A   Partly Cloudy
11:55 PM 68.0 °F 60.8 °F 78% 30.17 in 9.0 mi ENE 5.8 mph - N/A   Partly Cloudy